Gulkana, AK

5:48 AM AKDT on August 19, 2017 (GMT -0800)
Gulkana

Weather History for PAGK - January, 2013

Change the Weather History Date:

Saturday, January 5, 2013

  Actual Average Record
Temperature  
Mean Temperature 12 °F -  
Max Temperature 17 °F 0 °F 40 °F (1971)
Min Temperature 6 °F -15 °F -56 °F (1975)
Degree Days  
Heating Degree Days 54    
Moisture  
Dew Point 9 °F    
Average Humidity 82    
Maximum Humidity 88    
Minimum Humidity 71    
Precipitation  
Precipitation 0.00 in - - ()
Snow  
Snow 0.00 in - - ()
Snow Depth 9.00 in    
Sea Level Pressure  
Sea Level Pressure 29.66 in    
Wind  
Wind Speed 1 mph (East)    
Max Wind Speed 5 mph    
Max Gust Speed -    
Visibility 10 miles    
Events Snow    
Averages and records for this station are not official NWS values.
T = Trace of Precipitation, MM = Missing Value Source: NWS Daily Summary

Daily Weather History Graph

Daily Weather History Graph

Search for Another Location

Airport or City:

Trip Planner

Search our weather history database for the weather conditions in past years. The results will help you decide how hot, cold, wet, or windy it might be!

Date:

Astronomy

Jan. 05, 2013 Rise Set
Actual Time 10:02 AM AKST 3:33 PM AKST
Civil Twilight 8:58 AM AKST 4:36 PM AKST
Nautical Twilight 7:58 AM AKST 5:37 PM AKST
Astronomical Twilight 7:03 AM AKST 6:32 PM AKST
Moon 2:08 AM AKST (1/5) 11:31 AM AKST (1/5)
Length of Visible Light 7h 37m
Length of Day
5h 30m
Last Quarter, 42% of the Moon is Illuminated
Jan 5
Last Quarter
Jan 11
New
Jan 18
First Quarter
Jan 26
Full
Feb 3
Last Quarter

Hourly Weather History & Observations

Time (AKST) Temp. Windchill Dew Point Humidity Pressure Visibility Wind Dir Wind Speed Gust Speed Precip Events Conditions
12:53 AM 8.1 °F - 5.0 °F 87% 29.92 in 10.0 mi Calm Calm - N/A   Mostly Cloudy
1:53 AM 12.9 °F - 7.0 °F 77% 29.89 in 10.0 mi Calm Calm - N/A   Overcast
2:53 AM 12.0 °F - 7.0 °F 80% 29.89 in 10.0 mi Calm Calm - N/A   Overcast
3:53 AM 12.0 °F - 7.0 °F 80% 29.87 in 10.0 mi Calm Calm - N/A   Overcast
4:53 AM 10.9 °F - 8.1 °F 88% 29.84 in 10.0 mi Calm Calm - N/A   Overcast
5:53 AM 10.9 °F 2.9 °F 7.0 °F 84% 29.82 in 10.0 mi ESE 4.6 mph - N/A   Overcast
5:57 AM 10.9 °F 4.7 °F 7.0 °F 84% 29.67 in 10.0 mi SE 3.5 mph - N/A   Overcast
6:53 AM 10.9 °F - 7.0 °F 84% 29.79 in 10.0 mi Calm Calm - N/A   Overcast
7:53 AM 12.0 °F 5.9 °F 7.0 °F 80% 29.76 in 10.0 mi East 3.5 mph - N/A   Overcast
8:53 AM 12.9 °F - 8.1 °F 81% 29.73 in 10.0 mi Calm Calm - N/A   Overcast
9:53 AM 12.9 °F - 9.0 °F 84% 29.71 in 10.0 mi Calm Calm - N/A   Overcast
10:53 AM 14.0 °F - 9.0 °F 80% 29.69 in 10.0 mi Calm Calm - N/A   Overcast
11:53 AM 15.1 °F 9.4 °F 10.0 °F 80% 29.66 in 7.0 mi North 3.5 mph - 0.00 in Snow Light Snow
12:53 PM 16.0 °F 10.4 °F 10.9 °F 81% 29.64 in 10.0 mi NNW 3.5 mph - 0.00 in Snow Light Snow
1:53 PM 17.1 °F 10.0 °F 12.0 °F 81% 29.60 in 10.0 mi NNW 4.6 mph - 0.00 in   Overcast
2:53 PM 15.1 °F 9.4 °F 12.0 °F 88% 29.58 in 10.0 mi ESE 3.5 mph - N/A   Overcast
3:53 PM 16.0 °F - 12.0 °F 84% 29.56 in 10.0 mi Calm Calm - N/A   Overcast
4:53 PM 15.1 °F - 10.9 °F 84% 29.55 in 10.0 mi Calm Calm - N/A   Mostly Cloudy
5:53 PM 15.1 °F - 10.9 °F 84% 29.54 in 10.0 mi Calm Calm - N/A   Mostly Cloudy
6:53 PM 14.0 °F - 10.0 °F 84% 29.52 in 10.0 mi Calm Calm - N/A   Overcast
7:53 PM 15.1 °F - 10.9 °F 84% 29.51 in 10.0 mi Calm Calm - N/A   Overcast
8:53 PM 15.1 °F - 10.9 °F 84% 29.50 in 10.0 mi Calm Calm - N/A   Overcast
9:28 PM 15.1 °F - 10.9 °F 84% 29.38 in 10.0 mi Calm Calm - N/A   Overcast
9:53 PM 15.1 °F - 10.9 °F 84% 29.50 in 10.0 mi Calm Calm - N/A   Overcast
10:53 PM 14.0 °F - 10.9 °F 88% 29.52 in 10.0 mi Calm Calm - N/A   Overcast
11:53 PM 14.0 °F 8.2 °F 10.0 °F 84% 29.53 in 10.0 mi SSE 3.5 mph - N/A   Overcast